Change the Weather History Date:

Wednesday, March 13, 2013

  Actual Average Record
Temperature  
Mean Temperature 54 °F 57 °F  
Max Temperature 71 °F 68 °F 92 °F (1971)
Min Temperature 37 °F 47 °F 23 °F (1948)
Degree Days  
Heating Degree Days 11 9  
Month to date heating degree days 166 129  
Since 1 July heating degree days 1732 1941  
Cooling Degree Days 0 1  
Month to date cooling degree days 3 12  
Year to date cooling degree days 20 21  
Growing Degree Days 4 (Base 50)    
Moisture  
Dew Point 36 °F    
Average Humidity 54    
Maximum Humidity 79    
Minimum Humidity 28    
Precipitation  
Precipitation 0.00 in 0.10 in 2.18 in (1995)
Month to date precipitation 1.63 1.43  
Year to date precipitation 8.78 6.18  
Snow  
Snow 0.00 in 0.00 in 0.00 in ()
Month to date snowfall 0.0 0.0  
Since 1 July snowfall T 0.9  
Snow Depth 0.00 in    
Sea Level Pressure  
Sea Level Pressure 30.36 in    
Wind  
Wind Speed 6 mph (East)    
Max Wind Speed 14 mph    
Max Gust Speed 17 mph    
Visibility 10 miles    
Events      
T = Trace of Precipitation, MM = Missing Value Source: NWS Daily Summary

Daily Weather History Graph

Daily Weather History Graph

Search for Another Location

Airport or City:

Trip Planner

Search our weather history database for the weather conditions in past years. The results will help you decide how hot, cold, wet, or windy it might be!

Date:

Astronomy

Mar. 13, 2013 Rise Set
Actual Time 7:41 AM CDT 7:35 PM CDT
Civil Twilight 7:16 AM CDT 8:00 PM CDT
Nautical Twilight 6:48 AM CDT 8:28 PM CDT
Astronomical Twilight 6:20 AM CDT 8:56 PM CDT
Moon 8:31 AM CDT (3/13) 9:41 PM CDT (3/13)
Length of Visible Light 12h 43m
Length of Day
11h 54m
Waxing Crescent, 4% of the Moon is Illuminated
Mar 13
Waxing Crescent
Mar 19
First Quarter
Mar 27
Full
Apr 2
Last Quarter
Apr 10
New

Hourly Weather History & Observations

Time (CDT) Temp. Windchill Dew Point Humidity Pressure Visibility Wind Dir Wind Speed Gust Speed Precip Events Conditions
12:51 AM 46.0 °F 43.1 °F 35.1 °F 66% 30.31 in 10.0 mi North 5.8 mph - N/A   Clear
1:51 AM 45.0 °F 43.5 °F 34.0 °F 65% 30.32 in 10.0 mi North 3.5 mph - N/A   Clear
2:51 AM 44.1 °F 42.5 °F 33.1 °F 65% 30.33 in 10.0 mi NW 3.5 mph - N/A   Clear
3:51 AM 39.2 °F - 33.8 °F 81% 30.35 in 10.0 mi Calm Calm - N/A   Clear
4:51 AM 42.1 °F 40.2 °F 33.1 °F 70% 30.34 in 10.0 mi North 3.5 mph - N/A   Clear
5:51 AM 39.9 °F 36.7 °F 33.1 °F 77% 30.36 in 10.0 mi NNW 4.6 mph - N/A   Clear
6:51 AM 42.8 °F 40.1 °F 33.8 °F 70% 30.39 in 10.0 mi North 4.6 mph - N/A   Clear
7:51 AM 42.1 °F 37.7 °F 34.0 °F 73% 30.40 in 10.0 mi North 6.9 mph - N/A   Clear
8:51 AM 48.0 °F - 35.1 °F 61% 30.42 in 10.0 mi North 4.6 mph - N/A   Clear
9:51 AM 53.1 °F - 37.9 °F 57% 30.44 in 10.0 mi East 4.6 mph - N/A   Clear
10:51 AM 57.9 °F - 37.9 °F 47% 30.45 in 10.0 mi SE 9.2 mph - N/A   Clear
11:51 AM 62.1 °F - 37.9 °F 41% 30.45 in 10.0 mi East 9.2 mph - N/A   Clear
12:51 PM 66.0 °F - 39.0 °F 37% 30.44 in 10.0 mi SE 11.5 mph - N/A   Clear
1:51 PM 66.9 °F - 37.0 °F 33% 30.41 in 10.0 mi Variable 6.9 mph - N/A   Clear
2:51 PM 68.0 °F - 37.0 °F 32% 30.38 in 10.0 mi South 6.9 mph - N/A   Clear
3:51 PM 68.0 °F - 37.4 °F 33% 30.36 in 10.0 mi SSE 4.6 mph - N/A   Clear
4:51 PM 69.1 °F - 37.0 °F 31% 30.33 in 10.0 mi Variable 5.8 mph - N/A   Clear
5:51 PM 69.1 °F - 36.0 °F 30% 30.32 in 10.0 mi South 5.8 mph - N/A   Clear
6:51 PM 66.9 °F - 37.0 °F 33% 30.31 in 10.0 mi SSE 8.1 mph - N/A   Clear
7:51 PM 60.1 °F - 39.0 °F 46% 30.31 in 10.0 mi ESE 5.8 mph - N/A   Clear
8:51 PM 60.1 °F - 37.9 °F 44% 30.31 in 10.0 mi East 4.6 mph - N/A   Clear
9:51 PM 57.0 °F - 39.0 °F 51% 30.32 in 10.0 mi ESE 6.9 mph - N/A   Clear
10:51 PM 55.9 °F - 37.9 °F 51% 30.32 in 10.0 mi SE 6.9 mph - N/A   Clear
11:51 PM 55.9 °F - 37.9 °F 51% 30.32 in 10.0 mi SSE 6.9 mph - N/A   Clear